STARLINK-5558 (55631 NORAD) Tracking and Keplerian Element Data

This shows tracking and keplerian element data for the satellite.

Feedback or suggestion? Click here.




ElementValue
Catalog55631
NameSTARLINK-5558
Epoch Orbit130
Epoch Day62.91667824
Epoch Year2023
RAAN110.2033
Inclination70.0001
Eccentricity0.0003473
Argument of Perigee269.2924
Mean Anonmoly323.6142
Mean Motion15.74894116
Decay Rate-0.00972613
L11 55631U 23021D 23062.91667824 -.00972613 00000+0 -73403-2 0 9992
L22 55631 70.0001 110.2033 0003473 269.2924 323.6142 15.74894116 1302



Live tracking and technical data element details for STARLINK-5558 (NORAD 55631). STARLINK-5558 can be tracked NOW for your location showing map with azimuth and elevation plus other details from your city location.







IsCatalogInMostPopularTable: catalog: 55631, numindb: 4
Update: records affected: 1



GetName: 55631 STARLINK-5558

Hit Count: updated at: Wed, 22 Mar 2023 16:02:26 GMT